Location: *
(48.4333°N, 5.0333°W)
Time: 00:42:14
(UTC+00:00)

Cosmos 1892 - Pass Details

Date: 09 April 2020
Orbit: 503 x 526 km, 82.5° (Epoch: 02 June)

Event Time Altitude Azimuth Distance (km) Brightness Sun altitude
Rises 21:30:38 0° 346° (NNW) 2,675 7.3 -22.2°
Reaches altitude 10° 21:32:49 10° 342° (NNW) 1,781 6.3 -22.5°
Maximum altitude 21:36:38 54° 265° (W) 647 3.3 -23.0°
Enters shadow 21:37:07 50° 235° (SW) 680 3.2 -23.0°
